This demonstration page uses our WeatherBlox Daily Observations layout. Learn more.

Left ArrowRight Arrow

38.80484, -77.04692

Hourly Observations for November 15, 2021

Temp ( °F °C ) Dew Point ( °F °C ) Humidity (%) Winds ( mph kmh ) Pressure ( in mb ) Visibility ( mi km ) Precip ( " mm )
12:52 am 00:52 Mostly Cloudy 45 7.2 33 0.6 63 63 Calm 29.80 1009 10 16 0.00 0.00
1:52 am 01:52 Mostly Cloudy 44 6.7 34 1.1 68 68 WSW 3 6 29.79 1009 10 16 0.00 0.00
2:52 am 02:52 Cloudy 46 7.8 31 -0.6 56 56 W 13 20 29.81 1009 10 16 0.00 0.00
3:52 am 03:52 Cloudy 46 7.8 28 -2.2 50 50 WNW 15 24 29.83 1010 10 16 0.00 0.00
4:52 am 04:52 Mostly Clear 44 6.7 23 -5 43 43 WNW 16 26 29.86 1011 10 16 0.00 0.00
5:52 am 05:52 Mostly Clear 42 5.6 23 -5 47 47 W 8 13 29.88 1012 10 16 0.00 0.00
6:52 am 06:52 Mostly Cloudy 44 6.7 25 -3.9 47 47 WSW 10 17 29.91 1013 10 16 0.00 0.00
7:52 am 07:52 Mostly Cloudy 44 6.7 26 -3.3 49 49 WSW 8 13 29.94 1014 10 16 0.00 0.00
8:52 am 08:52 Mostly Cloudy 45 7.2 26 -3.3 48 48 undefined N/A 29.97 1015 10 16 0.00 0.00
9:52 am 09:52 Mostly Cloudy 49 9.4 28 -2.2 44 44 W 12 19 29.99 1016 10 16 0.00 0.00
10:52 am 10:52 Mostly Cloudy 50 10 28 -2.2 43 43 WNW 21 33 30.00 1016 10 16 0.00 0.00
11:52 am 11:52 Mostly Cloudy 50 10 27 -2.8 41 41 NW 18 30 30.00 1016 10 16 0.00 0.00
12:52 pm 12:52 Mostly Cloudy 50 10 27 -2.8 41 41 WNW 21 33 30.00 1016 10 16 0.00 0.00
1:52 pm 13:52 Partly Cloudy 51 10.6 27 -2.8 39 39 WNW 15 24 30.02 1017 10 16 0.00 0.00
2:52 pm 14:52 Partly Cloudy 50 10 25 -3.9 38 38 WNW 20 31 30.01 1016 10 16 0.00 0.00
3:52 pm 15:52 Mostly Sunny 48 8.9 23 -5 37 37 WNW 21 33 30.07 1018 10 16 0.00 0.00
4:52 pm 16:52 Mostly Sunny 46 7.8 22 -5.6 38 38 W 14 22 30.09 1019 10 16 0.00 0.00
5:52 pm 17:52 Mostly Clear 45 7.2 23 -5 42 42 NW 12 19 30.11 1020 10 16 0.00 0.00
6:52 pm 18:52 Mostly Cloudy 44 6.7 23 -5 43 43 Calm 30.13 1020 10 16 0.00 0.00
7:52 pm 19:52 Partly Cloudy 43 6.1 23 -5 45 45 WNW 10 17 30.13 1020 10 16 0.00 0.00
8:52 pm 20:52 Mostly Clear 42 5.6 24 -4.4 49 49 S 5 7 30.15 1021 10 16 0.00 0.00
9:52 pm 21:52 Mostly Clear 42 5.6 24 -4.4 49 49 SSW 5 7 30.16 1021 10 16 0.00 0.00
10:52 pm 22:52 Mostly Cloudy 40 4.4 25 -3.9 55 55 S 7 11 30.17 1022 10 16 0.00 0.00
11:52 pm 23:52 Mostly Cloudy 41 5 24 -4.4 51 51 SSW 7 11 30.16 1021 10 16 0.00 0.00

Powered by AerisWeather